Rochester, United Kingdom
Current Conditions -  °F | °C
As of 6:20 PM on Sunday 25 Jan 2015 (Local Time) from EGMC Reporting Station
Broken Clouds Broken Clouds  
Wind Chill: 42°   Ceiling: 2000
Heat Index: 46°   Visibility: 6mi
Dew Point: 37°   Wind: 9mph
Humidity: 71%   Direction: 240°WSW
Pressure: 30.33"   Gusts: NA
Location:  51.39°N, 0.5°E
Report Text: EGMC 251820Z 24008KT 9999 BKN020 08/03 Q1027
Loading
Personal Weather Stations






























Interactive Weather Map New forecast layout! Learn more

10-Day Weather Forecast

Advertisements
Track Severe Weather on mobile